OBJECT AT, 68457

Orbit data source: Space-Track

You're viewing an uncataloged RSO

Recently launched and/or uncataloged RSOs may have evolving metadata. Metadata may include the following, but is not limited to: Owner, Manufacturer, Bus, Motor, and Mission.

OBJECT AT, 68457 is a satellite in SSO that was launched on Mon, 30 Mar 2026 UTC via an FALCON 9 launch vehicle from the Air Force Western Test Range (AFWTR). Unknown objects in Earth's orbit typically refer to objects detected orbiting the Earth but have not yet been identified or cataloged. These objects could be anything from previously untracked satellites, spent rocket stages, debris from satellite collisions, or even natural meteoroids temporarily captured by Earth's gravity.

Loading next visibility...
Identifier
68457, 2026-067AT
Orbit
SSO
Country
Flag of TBDTBD
Related business
None
Manufacturer
Unknown
Mission
Operational Commercial Technology
Bus & Motor
Unknown
Mass
Unknown
Launch date (UTC)
2026-03-30 (6 months ago)
Launch vehicle
FALCON 9
Launch site
Air Force Western Test Range (AFWTR)
Object type
Unknown
Shape & HBR
Box + 2 Ant, 0.1 m
Radar Cross Section
0.006 m², Medium (>0.1 m² and < 1m²)

Expand to show TLE details & history
Last TLE update: 19 hours ago

TLE from 19 hours ago
0 OBJECT AT
1 68457U 26067AT  26262.68837648  .00007384  00000-0  33596-3 0  9990
2 68457  97.4648 220.2115 0003054  60.5459 299.6081 15.21007271 26306
Epoch: 2026-09-19T16:31Z
TLE epoch observation values (Epoch: 2026-09-19T16:31:15.727Z)
Latitude
-0.00004°
Longitude
-26.19734°
Altitude
504.853 km
Speed
7.612 km/s
True Right ascension
14h 40m 50s
True Declination
0° 00' 00"
Sunlit
Object was in daylight at epoch
Visualization orbit readout
Latitude
Unknown
Longitude
Unknown
Altitude
Unknown
Speed
Unknown
Apparent Right ascension
Unknown
Apparent Declination
Unknown
Sunlit
N/A
Visualization observer readout
Local Sidereal Time
04:12:04
Azimuth
Unknown
Elevation
Unknown
Doppler factor
Unknown
Orbital elements
Apogee altitude
501.869 km
Perigee altitude
497.668 km
Semi-major axis
6,877.905 km
Eccentricity
0.00031
Inclination
97.4648°
RAAN
220.2115°
Arg. of periapsis
60.5459°
True anomaly
299.57767°
Mean anomaly
299.6081°
Eccentric anomaly
299.59288°
Mean motion
3.80504 °/min
Orbital period
94.61 mins
BSTAR
0.00033596
Loading maneuver chart data...
Computing Atmospheric mass density...
Loading historical data...
Loading historical data...
Loading historical data...
Loading historical data...
Loading historical data...
Loading historical data...
Loading historical data...

Documentation

Showing up to 5 results
|